Time,TemperatureF,DewpointF,PressureIn,WindDirection,WindDirectionDegrees,WindSpeedMPH,WindSpeedGustMPH,Humidity,HourlyPrecipIn,Conditions,Clouds,dailyrainin,SoftwareType,DateUTC
2013-06-08 00:06:00,58.8,49.1,29.62,North,0,0.0,-999.0,70,0.00,,,0.00,open2300 v1.10,2013-06-08 07:06:00,
2013-06-08 00:21:00,58.8,49.1,29.61,North,0,0.0,-999.0,70,0.00,,,0.00,open2300 v1.10,2013-06-08 07:21:00,
2013-06-08 00:36:00,58.8,49.1,29.61,North,0,0.0,-999.0,70,0.00,,,0.00,open2300 v1.10,2013-06-08 07:36:00,
2013-06-08 00:51:00,58.8,49.1,29.61,North,0,0.0,-999.0,70,0.00,,,0.00,open2300 v1.10,2013-06-08 07:51:00,
2013-06-08 01:07:00,58.8,49.1,29.61,North,0,0.0,-999.0,70,0.00,,,0.00,open2300 v1.10,2013-06-08 08:07:00,
2013-06-08 01:21:00,58.8,49.1,29.61,North,0,0.0,-999.0,70,0.00,,,0.00,open2300 v1.10,2013-06-08 08:21:00,
2013-06-08 01:36:00,58.8,49.1,29.61,North,0,0.0,-999.0,70,0.00,,,0.00,open2300 v1.10,2013-06-08 08:36:00,
2013-06-08 01:51:00,58.8,49.1,29.61,North,0,0.0,-999.0,70,0.00,,,0.00,open2300 v1.10,2013-06-08 08:51:00,
2013-06-08 02:07:00,58.8,49.1,29.61,North,0,0.0,-999.0,70,0.00,,,0.00,open2300 v1.10,2013-06-08 09:07:00,
2013-06-08 02:21:00,58.8,49.5,29.60,North,0,0.0,-999.0,71,0.00,,,0.00,open2300 v1.10,2013-06-08 09:21:00,
2013-06-08 02:36:00,58.8,49.5,29.60,North,0,0.0,-999.0,71,0.00,,,0.00,open2300 v1.10,2013-06-08 09:36:00,
2013-06-08 02:51:00,58.8,49.5,29.61,North,0,0.0,-999.0,71,0.00,,,0.00,open2300 v1.10,2013-06-08 09:51:00,
2013-06-08 03:07:00,58.3,48.9,29.61,North,0,0.0,-999.0,71,0.00,,,0.00,open2300 v1.10,2013-06-08 10:07:00,
2013-06-08 03:21:00,57.9,48.6,29.61,North,0,0.0,-999.0,71,0.00,,,0.00,open2300 v1.10,2013-06-08 10:21:00,
2013-06-08 03:36:00,57.9,48.9,29.61,North,0,0.0,-999.0,72,0.00,,,0.00,open2300 v1.10,2013-06-08 10:36:00,
2013-06-08 03:51:00,57.7,48.7,29.60,North,0,0.0,-999.0,72,0.00,,,0.00,open2300 v1.10,2013-06-08 10:51:00,
2013-06-08 04:07:00,57.7,48.7,29.60,North,0,0.0,-999.0,72,0.00,,,0.00,open2300 v1.10,2013-06-08 11:07:00,
2013-06-08 04:21:00,57.7,48.7,29.60,North,0,0.0,-999.0,72,0.00,,,0.00,open2300 v1.10,2013-06-08 11:21:00,
2013-06-08 04:36:00,57.6,48.9,29.60,North,0,0.0,-999.0,73,0.00,,,0.00,open2300 v1.10,2013-06-08 11:36:00,
2013-06-08 04:51:00,57.6,48.9,29.60,North,0,0.0,-999.0,73,0.00,,,0.00,open2300 v1.10,2013-06-08 11:51:00,
2013-06-08 05:07:00,57.4,48.7,29.60,North,0,0.0,-999.0,73,0.00,,,0.00,open2300 v1.10,2013-06-08 12:07:00,
2013-06-08 05:21:00,57.2,48.6,29.60,North,0,0.0,-999.0,73,0.00,,,0.00,open2300 v1.10,2013-06-08 12:21:00,
2013-06-08 05:36:00,56.8,48.6,29.61,North,0,0.0,-999.0,74,0.00,,,0.00,open2300 v1.10,2013-06-08 12:36:00,
2013-06-08 05:51:00,56.7,48.4,29.61,North,0,0.0,-999.0,74,0.00,,,0.00,open2300 v1.10,2013-06-08 12:51:00,
2013-06-08 06:07:00,56.3,48.1,29.61,North,0,0.0,-999.0,74,0.00,,,0.00,open2300 v1.10,2013-06-08 13:07:00,
2013-06-08 06:21:00,56.1,48.2,29.62,North,0,0.0,-999.0,75,0.00,,,0.00,open2300 v1.10,2013-06-08 13:21:00,
2013-06-08 06:36:00,55.9,48.1,29.62,North,0,0.0,-999.0,75,0.00,,,0.00,open2300 v1.10,2013-06-08 13:36:00,
2013-06-08 06:51:00,55.6,47.7,29.63,North,0,0.0,-999.0,75,0.00,,,0.00,open2300 v1.10,2013-06-08 13:51:00,
2013-06-08 07:07:00,55.4,47.9,29.63,North,0,0.0,-999.0,76,0.00,,,0.00,open2300 v1.10,2013-06-08 14:07:00,
2013-06-08 07:36:00,55.6,48.4,29.63,North,0,0.0,-999.0,77,0.00,,,0.00,open2300 v1.10,2013-06-08 14:36:00,
2013-06-08 07:51:00,55.6,48.4,29.63,North,0,0.0,-999.0,77,0.00,,,0.00,open2300 v1.10,2013-06-08 14:51:00,
2013-06-08 08:06:00,55.9,48.8,29.64,North,0,0.0,-999.0,77,0.00,,,0.00,open2300 v1.10,2013-06-08 15:06:00,
2013-06-08 08:21:00,56.5,49.3,29.63,North,0,0.0,-999.0,77,0.00,,,0.00,open2300 v1.10,2013-06-08 15:21:00,
2013-06-08 08:36:00,57.0,49.8,29.63,North,0,0.0,-999.0,77,0.00,,,0.00,open2300 v1.10,2013-06-08 15:36:00,
2013-06-08 08:51:00,57.4,50.2,29.63,North,0,0.0,-999.0,77,0.00,,,0.00,open2300 v1.10,2013-06-08 15:51:00,
2013-06-08 09:06:00,57.7,50.5,29.63,North,0,0.0,-999.0,77,0.00,,,0.00,open2300 v1.10,2013-06-08 16:06:00,
2013-06-08 09:21:00,58.5,51.3,29.63,North,0,0.0,-999.0,77,0.00,,,0.00,open2300 v1.10,2013-06-08 16:21:00,
2013-06-08 09:36:00,58.8,51.6,29.63,North,0,0.0,-999.0,77,0.00,,,0.00,open2300 v1.10,2013-06-08 16:36:00,
2013-06-08 09:51:00,59.4,51.8,29.63,North,0,0.0,-999.0,76,0.00,,,0.00,open2300 v1.10,2013-06-08 16:51:00,
2013-06-08 10:06:00,59.9,52.3,29.64,North,0,0.0,-999.0,76,0.00,,,0.00,open2300 v1.10,2013-06-08 17:06:00,
2013-06-08 10:21:00,60.4,52.9,29.64,North,0,0.0,-999.0,76,0.00,,,0.00,open2300 v1.10,2013-06-08 17:21:00,
2013-06-08 10:36:00,60.6,52.7,29.63,North,0,0.0,-999.0,75,0.00,,,0.00,open2300 v1.10,2013-06-08 17:36:00,
2013-06-08 10:51:00,61.3,53.0,29.63,North,0,0.0,-999.0,74,0.00,,,0.00,open2300 v1.10,2013-06-08 17:51:00,
2013-06-08 11:06:00,61.7,53.3,29.63,North,0,0.0,-999.0,74,0.00,,,0.00,open2300 v1.10,2013-06-08 18:06:00,
2013-06-08 11:21:00,61.7,53.0,29.64,North,0,0.0,-999.0,73,0.00,,,0.00,open2300 v1.10,2013-06-08 18:21:00,
2013-06-08 11:36:00,61.7,53.0,29.63,North,0,0.0,-999.0,73,0.00,,,0.00,open2300 v1.10,2013-06-08 18:36:00,
2013-06-08 11:51:00,61.9,53.1,29.63,North,0,0.0,-999.0,73,0.00,,,0.00,open2300 v1.10,2013-06-08 18:51:00,
2013-06-08 12:06:00,62.1,53.3,29.62,North,0,0.0,-999.0,73,0.00,,,0.00,open2300 v1.10,2013-06-08 19:06:00,
2013-06-08 12:21:00,63.0,53.8,29.62,North,0,0.0,-999.0,72,0.00,,,0.00,open2300 v1.10,2013-06-08 19:21:00,
2013-06-08 12:36:00,62.8,53.6,29.62,North,0,0.0,-999.0,72,0.00,,,0.00,open2300 v1.10,2013-06-08 19:36:00,
2013-06-08 12:51:00,62.8,53.6,29.62,North,0,0.0,-999.0,72,0.00,,,0.00,open2300 v1.10,2013-06-08 19:51:00,
2013-06-08 13:06:00,62.8,53.6,29.61,North,0,0.0,-999.0,72,0.00,,,0.00,open2300 v1.10,2013-06-08 20:06:00,
2013-06-08 13:21:00,62.8,53.6,29.61,North,0,0.0,-999.0,72,0.00,,,0.00,open2300 v1.10,2013-06-08 20:21:00,
2013-06-08 13:36:00,62.8,53.6,29.61,North,0,0.0,-999.0,72,0.00,,,0.00,open2300 v1.10,2013-06-08 20:36:00,
2013-06-08 13:51:00,62.4,53.3,29.61,North,0,0.0,-999.0,72,0.00,,,0.00,open2300 v1.10,2013-06-08 20:51:00,
2013-06-08 14:06:00,62.2,53.1,29.62,North,0,0.0,-999.0,72,0.00,,,0.00,open2300 v1.10,2013-06-08 21:06:00,
2013-06-08 14:21:00,62.2,53.1,29.62,North,0,0.0,-999.0,72,0.00,,,0.00,open2300 v1.10,2013-06-08 21:21:00,
2013-06-08 14:36:00,62.2,53.1,29.62,North,0,0.0,-999.0,72,0.00,,,0.00,open2300 v1.10,2013-06-08 21:36:00,
2013-06-08 14:51:00,62.4,53.3,29.62,North,0,0.0,-999.0,72,0.00,,,0.00,open2300 v1.10,2013-06-08 21:51:00,
2013-06-08 15:06:00,62.2,53.1,29.61,North,0,0.0,-999.0,72,0.00,,,0.00,open2300 v1.10,2013-06-08 22:06:00,
2013-06-08 15:21:00,62.1,52.9,29.60,North,0,0.0,-999.0,72,0.00,,,0.00,open2300 v1.10,2013-06-08 22:21:00,
2013-06-08 15:36:00,61.9,52.8,29.60,North,0,0.0,-999.0,72,0.00,,,0.00,open2300 v1.10,2013-06-08 22:36:00,
2013-06-08 15:51:00,61.9,52.8,29.60,North,0,0.0,-999.0,72,0.00,,,0.00,open2300 v1.10,2013-06-08 22:51:00,
2013-06-08 16:06:00,62.2,53.1,29.60,North,0,0.0,-999.0,72,0.00,,,0.00,open2300 v1.10,2013-06-08 23:06:00,
2013-06-08 16:21:00,62.6,53.4,29.60,North,0,0.0,-999.0,72,0.00,,,0.00,open2300 v1.10,2013-06-08 23:21:00,
2013-06-08 16:36:00,63.1,53.6,29.60,North,0,0.0,-999.0,71,0.00,,,0.00,open2300 v1.10,2013-06-08 23:36:00,
2013-06-08 16:51:00,63.5,53.6,29.60,North,0,0.0,-999.0,70,0.00,,,0.00,open2300 v1.10,2013-06-08 23:51:00,
2013-06-08 17:06:00,64.0,54.1,29.61,North,0,0.0,-999.0,70,0.00,,,0.00,open2300 v1.10,2013-06-09 00:06:00,
2013-06-08 17:21:00,64.2,53.9,29.61,North,0,0.0,-999.0,69,0.00,,,0.00,open2300 v1.10,2013-06-09 00:21:00,
2013-06-08 17:36:00,64.6,54.2,29.61,North,0,0.0,-999.0,69,0.00,,,0.00,open2300 v1.10,2013-06-09 00:36:00,
2013-06-08 17:51:00,64.6,54.2,29.61,North,0,0.0,-999.0,69,0.00,,,0.00,open2300 v1.10,2013-06-09 00:51:00,
2013-06-08 18:06:00,64.8,54.4,29.62,North,0,0.0,-999.0,69,0.00,,,0.00,open2300 v1.10,2013-06-09 01:06:00,
2013-06-08 18:21:00,65.1,54.3,29.62,North,0,0.0,-999.0,68,0.00,,,0.00,open2300 v1.10,2013-06-09 01:21:00,
2013-06-08 18:36:00,65.3,54.5,29.62,North,0,0.0,-999.0,68,0.00,,,0.00,open2300 v1.10,2013-06-09 01:36:00,
2013-06-08 18:51:00,65.3,54.5,29.63,North,0,0.0,-999.0,68,0.00,,,0.00,open2300 v1.10,2013-06-09 01:51:00,
2013-06-08 19:06:00,65.3,54.5,29.63,North,0,0.0,-999.0,68,0.00,,,0.00,open2300 v1.10,2013-06-09 02:06:00,
2013-06-08 19:21:00,65.1,54.3,29.63,North,0,0.0,-999.0,68,0.00,,,0.00,open2300 v1.10,2013-06-09 02:21:00,
2013-06-08 19:36:00,65.3,54.5,29.63,North,0,0.0,-999.0,68,0.00,,,0.00,open2300 v1.10,2013-06-09 02:36:00,
2013-06-08 19:51:00,65.1,54.3,29.63,North,0,0.0,-999.0,68,0.00,,,0.00,open2300 v1.10,2013-06-09 02:51:00,
2013-06-08 20:06:00,64.6,53.8,29.64,North,0,0.0,-999.0,68,0.00,,,0.00,open2300 v1.10,2013-06-09 03:06:00,
2013-06-08 20:21:00,63.3,53.0,29.64,North,0,0.0,-999.0,69,0.00,,,0.00,open2300 v1.10,2013-06-09 03:21:00,
2013-06-08 20:36:00,61.7,52.2,29.64,North,0,0.0,-999.0,71,0.00,,,0.00,open2300 v1.10,2013-06-09 03:36:00,
2013-06-08 20:51:00,61.0,52.0,29.64,North,0,0.0,-999.0,72,0.00,,,0.00,open2300 v1.10,2013-06-09 03:51:00,
2013-06-08 21:06:00,60.1,51.4,29.64,North,0,0.0,-999.0,73,0.00,,,0.00,open2300 v1.10,2013-06-09 04:06:00,
2013-06-08 21:21:00,59.7,51.4,29.65,North,0,0.0,-999.0,74,0.00,,,0.00,open2300 v1.10,2013-06-09 04:21:00,
2013-06-08 21:36:00,59.2,51.3,29.67,North,0,0.0,-999.0,75,0.00,,,0.00,open2300 v1.10,2013-06-09 04:36:00,
2013-06-08 21:51:00,58.8,51.3,29.68,North,0,0.0,-999.0,76,0.00,,,0.00,open2300 v1.10,2013-06-09 04:51:00,
2013-06-08 22:06:00,58.8,51.3,29.68,North,0,0.0,-999.0,76,0.00,,,0.00,open2300 v1.10,2013-06-09 05:06:00,
2013-06-08 22:21:00,58.8,51.6,29.68,North,0,0.0,-999.0,77,0.00,,,0.00,open2300 v1.10,2013-06-09 05:21:00,
2013-06-08 22:36:00,58.8,51.6,29.68,North,0,0.0,-999.0,77,0.00,,,0.00,open2300 v1.10,2013-06-09 05:36:00,
2013-06-08 22:51:00,58.8,51.6,29.68,North,0,0.0,-999.0,77,0.00,,,0.00,open2300 v1.10,2013-06-09 05:51:00,
2013-06-08 23:06:00,59.0,51.8,29.68,North,0,0.0,-999.0,77,0.00,,,0.00,open2300 v1.10,2013-06-09 06:06:00,
2013-06-08 23:21:00,59.5,52.3,29.68,North,0,0.0,-999.0,77,0.00,,,0.00,open2300 v1.10,2013-06-09 06:21:00,
2013-06-08 23:36:00,59.5,52.3,29.68,North,0,0.0,-999.0,77,0.00,,,0.00,open2300 v1.10,2013-06-09 06:36:00,
2013-06-08 23:51:00,59.2,52.3,29.68,North,0,0.0,-999.0,78,0.00,,,0.00,open2300 v1.10,2013-06-09 06:51:00,